Powrót do katalogu

STARLINK-31211

AktywnyŁącznośćVLEO
NORAD 59031·PAYLOAD·🇺🇸 United States

Wystrzelony Feb 25, 2024 z Cape Canaveral Space Force Station

Loading…

Następne Przeloty (najbliższe 24 godziny)

TLE

ŚwieżeSource: CelesTrak SupGP

Epoka: Sep 14, 2026, 21:30 UTC

1 59031C 24038J   26257.89631944  .00047282  00000+0  17128-2 0  2571
2 59031  43.0027  38.2071 0001594 271.6697 245.1399 15.27550856    12

Śledź STARLINK-31211 w czasie rzeczywistym z AllMySat

Download on the App Store